This is the latest recevied weather packets stored in our database for station/object N5JXS. If no packets are shown the sender has not sent any weather packets the latest 10 day(s).
| Time | Temp. | Humidity | Pressure | Rain* | Wind** | Luminosity | Snow |
|---|---|---|---|---|---|---|---|
| 1787780017 | 22.78° C | 54% | 1031.1 hPa | 0 mm | - | 38 W/m² | - |
| 1787779713 | 22.78° C | 53% | 1031.2 hPa | 0 mm | - | 72 W/m² | - |
| 1787779411 | 22.78° C | 52% | 1031.6 hPa | 0 mm | - | 75 W/m² | - |
| 1787779107 | 23.89° C | 50% | 1032.1 hPa | 0 mm | - | 46 W/m² | - |
| 1787778802 | 23.89° C | 48% | 1031.9 hPa | 0 mm | - | 41 W/m² | - |
| 1787778497 | 24.44° C | 49% | 1031.8 hPa | 0 mm | - | 154 W/m² | - |
| 1787778193 | 23.89° C | 49% | 1031.7 hPa | 0 mm | - | 249 W/m² | - |
| 1787777893 | 23.89° C | 49% | 1031.8 hPa | 0 mm | - | 262 W/m² | - |
| 1787777588 | 24.44° C | 50% | 1031.4 hPa | 0 mm | - | 188 W/m² | - |
| 1787777284 | 25° C | 49% | 1031.7 hPa | 0 mm | - | 326 W/m² | - |
| 1787776983 | 23.89° C | 49% | 1031.6 hPa | 0 mm | - | 570 W/m² | - |
| 1787776682 | 23.33° C | 49% | 1031.7 hPa | 0 mm | - | 331 W/m² | - |
| 1787776381 | 23.33° C | 49% | 1032.1 hPa | 0 mm | - | 83 W/m² | - |
| 1787776079 | 23.33° C | 49% | 1031.9 hPa | 0 mm | - | 95 W/m² | - |
| 1787775774 | 23.33° C | 50% | 1032.1 hPa | 0 mm | - | 87 W/m² | - |
| 1787775473 | 23.33° C | 50% | 1032.7 hPa | 0 mm | - | 61 W/m² | - |
| 1787775172 | 23.89° C | 49% | 1032.4 hPa | 0 mm | - | 74 W/m² | - |
| 1787774872 | 23.89° C | 48% | 1032.8 hPa | 0 mm | - | 80 W/m² | - |
| 1787774571 | 23.89° C | 48% | 1032.6 hPa | 0 mm | - | 93 W/m² | - |
| 1787774265 | 23.89° C | 47% | 1032.2 hPa | 0 mm | - | 111 W/m² | - |
| 1787773964 | 24.44° C | 46% | 1032.3 hPa | 0 mm | - | 157 W/m² | - |
* Rain latest hour (hover to see other rain measurements)
** Current wind speed in m/s (hover to see current wind gust speed)